Weather History for Sioux City, IA

Change the Weather History Date:

Sunday, October 19, 2014

  Actual Average Record
Temperature  
Mean Temperature 58 °F 50 °F  
Max Temperature 76 °F 62 °F 88 °F (2003)
Min Temperature 39 °F 37 °F 13 °F (1972)
Degree Days  
Heating Degree Days 7 16  
Month to date heating degree days 228 234  
Since 1 July heating degree days 340 381  
Cooling Degree Days 0 0  
Month to date cooling degree days 4 8  
Year to date cooling degree days 862 869  
Growing Degree Days 7 (Base 50)    
Moisture  
Dew Point 43 °F    
Average Humidity 63    
Maximum Humidity 92    
Minimum Humidity 33    
Precipitation  
Precipitation 0.00 in 0.06 in 1.35 in (1982)
Month to date precipitation 0.60 1.50  
Year to date precipitation 39.02 25.00  
Snow  
Snow 0.00 in 0.00 in 8.00 in (1982)
Month to date snowfall 0.0 0.3  
Since 1 July snowfall 0.0 0.3  
Since 1 September snowfall 0.0 0.3  
Snow Depth 0.00 in    
Sea Level Pressure  
Sea Level Pressure 30.00 in    
Wind  
Wind Speed 7 mph (SSW)    
Max Wind Speed 17 mph    
Max Gust Speed 23 mph    
Visibility 10 miles    
Events      
T = Trace of Precipitation, MM = Missing Value Source: NWS Daily Summary

Daily Weather History Graph

Daily Weather History Graph

Search for Another Location

Airport:

Trip Planner

Search our weather history database for the weather conditions in past years. The results will help you decide how hot, cold, wet, or windy it might be!

Date:

Astronomy

Oct. 19, 2014 Rise Set
Actual Time 7:43 AM CDT 6:37 PM CDT
Civil Twilight 7:14 AM CDT 7:05 PM CDT
Nautical Twilight 6:41 AM CDT 7:38 PM CDT
Astronomical Twilight 6:09 AM CDT 8:10 PM CDT
Moon 3:32 AM CDT (10/19) 4:33 PM CDT (10/19)
Length of Visible Light 11h 50m
Length of Day
10h 54m
Waning Crescent, 16% of the Moon is Illuminated
Oct 19
Waning Crescent
Oct 23
New
Oct 30
First Quarter
Nov 6
Full
Nov 14
Last Quarter

Hourly Weather History & Observations

Time (CDT) Temp. Windchill Dew Point Humidity Pressure Visibility Wind Dir Wind Speed Gust Speed Precip Events Conditions
12:52 AM 42.1 °F 37.1 °F 37.9 °F 85% 30.13 in 10.0 mi ESE 8.1 mph - N/A   Clear
1:52 AM 42.1 °F 38.4 °F 39.0 °F 89% 30.12 in 10.0 mi ESE 5.8 mph - N/A   Clear
2:52 AM 41.0 °F 36.4 °F 37.9 °F 89% 30.11 in 10.0 mi SE 6.9 mph - N/A   Clear
3:52 AM 39.9 °F 36.7 °F 37.9 °F 93% 30.10 in 9.0 mi ESE 4.6 mph - N/A   Clear
4:52 AM 42.1 °F 37.1 °F 39.0 °F 89% 30.08 in 10.0 mi SE 8.1 mph - N/A   Clear
5:52 AM 45.0 °F 40.6 °F 39.9 °F 82% 30.06 in 10.0 mi SSE 8.1 mph - N/A   Clear
6:52 AM 45.0 °F 40.6 °F 39.0 °F 80% 30.06 in 10.0 mi South 8.1 mph - N/A   Clear
7:52 AM 46.0 °F 43.1 °F 39.9 °F 79% 30.04 in 10.0 mi SSE 5.8 mph - N/A   Clear
8:52 AM 48.0 °F - 41.0 °F 77% 30.04 in 10.0 mi SSE 5.8 mph - N/A   Clear
9:52 AM 55.4 °F - 42.8 °F 63% 30.01 in 10.0 mi SSW 9.2 mph - N/A   Clear
10:52 AM 59.0 °F - 43.0 °F 55% 30.01 in 10.0 mi SW 10.4 mph - N/A   Clear
11:52 AM 64.9 °F - 44.1 °F 47% 29.98 in 10.0 mi SW 10.4 mph 21.9 mph N/A   Clear
12:52 PM 69.1 °F - 45.0 °F 42% 29.96 in 10.0 mi SW 15.0 mph 21.9 mph N/A   Clear
1:52 PM 72.0 °F - 46.0 °F 40% 29.94 in 10.0 mi WSW 15.0 mph 19.6 mph N/A   Clear
2:52 PM 73.9 °F - 46.9 °F 38% 29.92 in 10.0 mi West 12.7 mph - N/A   Clear
3:52 PM 75.0 °F - 46.0 °F 36% 29.91 in 10.0 mi West 8.1 mph - N/A   Clear
4:52 PM 75.0 °F - 45.0 °F 34% 29.90 in 10.0 mi WSW 8.1 mph - N/A   Clear
5:52 PM 73.9 °F - 45.0 °F 35% 29.89 in 10.0 mi West 5.8 mph - N/A   Clear
6:52 PM 63.0 °F - 45.0 °F 52% 29.91 in 10.0 mi West 3.5 mph - N/A   Clear
7:52 PM 55.0 °F - 45.0 °F 69% 29.93 in 10.0 mi SSW 3.5 mph - N/A   Clear
8:52 PM 48.9 °F - 44.1 °F 83% 29.94 in 10.0 mi Calm Calm - N/A   Clear
9:52 PM 53.1 °F - 45.0 °F 74% 29.94 in 10.0 mi WNW 4.6 mph - N/A   Clear
10:52 PM 51.1 °F - 46.0 °F 83% 29.95 in 10.0 mi North 5.8 mph - N/A   Clear
11:52 PM 48.9 °F - 45.0 °F 86% 29.95 in 10.0 mi NNW 5.8 mph - N/A   Clear